GW3986 Weather Reports


time (UTC)temp
C
wind
direction
speed
KPH
gust
KPH
rain 1hr
cm
rain 24hr
cm
rain mn
cm
humidity
%
barometer
mb
20260508040020 10 311 3.2 8.0 0.00 0.20 0.20 45 1019.4
20260508034524 10 309 9.7 24.1 0.00 0.20 0.20 42 1019.6
20260508033035 10 289 4.8 9.7 0.00 0.20 0.20 44 1019.3
20260508031512 10 318 1.6 4.8 0.00 0.20 0.20 43 1019.0
20260508030016 10 331 0.0 3.2 0.00 0.20 0.20 43 1018.7
20260508024521 10 360 0.0 1.6 0.00 0.20 0.20 47 1018.4
20260508023037 10 360 0.0 0.0 0.00 0.20 0.20 43 1018.0
20260508021527 11 360 0.0 0.0 0.00 0.20 0.20 42 1018.0
20260508020016 11 360 0.0 3.2 0.00 0.20 0.20 43 1018.0
20260508014518 12 343 0.0 3.2 0.00 0.20 0.20 39 1017.8
20260508013024 13 313 1.6 8.0 0.00 0.20 0.20 33 1017.7
20260508011525 13 283 3.2 12.9 0.00 0.20 0.20 32 1017.6
20260508010037 15 328 1.6 12.9 0.00 0.20 0.20 31 1017.7
20260508004524 16 300 6.4 14.5 0.00 0.23 0.20 28 1017.6
20260508003022 16 236 4.8 14.5 0.00 0.23 0.20 27 1017.4
20260508001532 15 254 6.4 12.9 0.00 0.25 0.20 28 1017.5
20260508000028 15 264 4.8 17.7 0.00 0.25 0.20 28 1017.6
20260507234534 16 216 1.6 9.7 0.00 0.28 0.20 27 1017.5
20260507233022 16 288 3.2 12.9 0.00 0.30 0.20 27 1017.6
20260507231524 16 300 4.8 14.5 0.00 0.30 0.20 28 1017.7
20260507230026 15 217 3.2 20.9 0.00 0.33 0.20 28 1017.8
20260507224547 16 275 6.4 25.7 0.00 0.36 0.20 27 1017.8
20260507223021 16 291 9.7 24.1 0.00 0.38 0.20 28 1017.7
20260507221533 16 192 4.8 17.7 0.00 0.41 0.20 27 1017.6
20260507220030 16 319 8.0 19.3 0.00 0.43 0.20 32 1017.8
20260507214532 14 326 8.0 29.0 0.00 0.46 0.20 30 1018.0
20260507213031 16 261 8.0 24.1 0.00 0.48 0.20 30 1017.9
20260507211523 16 337 9.7 20.9 0.00 0.51 0.20 33 1018.2
20260507210043 15 321 8.0 17.7 0.00 0.51 0.20 34 1018.5
20260507204528 15 248 4.8 27.4 0.00 0.51 0.20 35 1018.6
20260507203028 15 281 6.4 17.7 0.00 0.53 0.20 32 1018.8
20260507201532 15 9 4.8 17.7 0.00 0.56 0.20 34 1019.2
20260507200035 15 264 9.7 24.1 0.00 0.58 0.20 35 1019.2
20260507194514 15 305 9.7 20.9 0.00 0.61 0.20 42 1019.3
20260507193024 13 232 8.0 17.7 0.00 0.66 0.20 38 1019.4
20260507191526 13 327 6.4 17.7 0.00 0.66 0.20 38 1019.6
20260507190032 13 256 6.4 16.1 0.00 0.69 0.20 35 1019.8
20260507184525 13 325 6.4 17.7 0.00 0.69 0.20 39 1020.1
20260507183030 12 325 3.2 14.5 0.00 0.69 0.20 36 1020.1
20260507181516 12 256 4.8 8.0 0.00 0.74 0.20 35 1020.1
20260507180021 12 236 6.4 11.3 0.00 0.81 0.20 37 1019.9
20260507174524 12 242 3.2 12.9 0.00 0.81 0.20 35 1020.1
20260507173027 12 112 0.0 12.9 0.00 0.81 0.20 38 1020.3
20260507171518 11 11 3.2 14.5 0.00 0.81 0.20 41 1020.6
20260507170022 11 267 3.2 12.9 0.00 0.81 0.20 46 1020.6
20260507164526 11 232 3.2 12.9 0.03 0.81 0.20 44 1020.7
20260507163030 10 235 3.2 14.5 0.08 0.81 0.20 48 1020.8
20260507161525 9 248 6.4 14.5 0.13 0.81 0.20 51 1021.0
20260507160029 8 242 6.4 14.5 0.15 0.81 0.20 54 1021.0
20260507154524 8 259 4.8 16.1 0.18 0.79 0.18 57 1021.0
20260507153024 7 241 3.2 14.5 0.13 0.74 0.13 60 1021.0
20260507151526 6 196 6.4 16.1 0.08 0.69 0.08 57 1021.1
20260507150019 6 246 3.2 16.1 0.05 0.66 0.05 63 1021.0
20260507144530 5 255 6.4 16.1 0.00 0.61 0.00 61 1020.9
20260507143026 5 235 4.8 17.7 0.00 0.61 0.00 61 1020.9
20260507141530 4 227 3.2 11.3 0.00 0.61 0.00 62 1020.9
20260507140005 3 250 4.8 14.5 0.00 0.61 0.00 62 1020.9
20260507134507 2 257 6.4 11.3 0.00 0.61 0.00 65 1020.8
20260507133012 2 237 6.4 14.5 0.00 0.61 0.00 64 1020.4
20260507131507 1 246 4.8 12.9 0.00 0.61 0.00 67 1020.4
20260507130012 0 285 3.2 8.0 0.00 0.61 0.00 69 1020.4
20260507124511 0 252 3.2 11.3 0.00 0.61 0.00 70 1020.2
20260507123010 0 261 3.2 11.3 0.00 0.61 0.00 69 1020.1
20260507121512 0 245 3.2 14.5 0.00 0.61 0.00 70 1020.0
20260507120012 0 248 3.2 11.3 0.00 0.61 0.00 71 1019.9
20260507114513 0 240 4.8 12.9 0.00 0.61 0.00 70 1019.9
20260507113010 0 223 3.2 11.3 0.00 0.61 0.00 70 1019.9
20260507111511 -1 249 6.4 12.9 0.00 0.61 0.00 70 1020.0
20260507110012 -1 249 4.8 9.7 0.00 0.61 0.00 70 1019.9
20260507104516 -1 268 3.2 9.7 0.00 0.61 0.00 70 1019.7
20260507103017 -1 261 3.2 8.0 0.00 0.61 0.00 69 1019.9
20260507101518 0 267 4.8 12.9 0.00 0.61 0.00 68 1020.1
20260507100017 -1 294 4.8 16.1 0.00 0.61 0.00 70 1020.1
20260507094518 -1 248 4.8 14.5 0.00 0.61 0.00 70 1020.1
20260507093017 -1 283 4.8 11.3 0.00 0.61 0.00 71 1020.0
20260507091516 -1 275 6.4 12.9 0.00 0.61 0.00 73 1020.2
20260507090020 -1 262 1.6 8.0 0.00 0.61 0.00 73 1020.3
20260507084518 -1 261 3.2 9.7 0.00 0.61 0.00 76 1020.5
20260507081530 -2 227 3.2 8.0 0.00 0.61 0.00 81 1020.6
20260507080022 -2 248 4.8 11.3 0.00 0.61 0.00 84 1020.6
20260507074520 -3 237 3.2 11.3 0.00 0.61 0.00 87 1020.6
20260507073021 -3 236 3.2 8.0 0.00 0.61 0.00 91 1020.7
20260507071523 -3 250 1.6 6.4 0.00 0.61 0.00 93 1020.7
20260507070018 -3 232 3.2 4.8 0.00 0.61 0.00 94 1020.8
20260507064521 -3 247 1.6 4.8 0.00 0.61 0.00 94 1020.7
20260507063019 -3 216 0.0 3.2 0.00 0.61 0.00 94 1020.9
20260507061523 -3 215 1.6 3.2 0.00 0.61 0.00 94 1020.9
20260507060019 -2 202 1.6 6.4 0.00 0.61 0.00 94 1020.7
20260507054519 -2 215 3.2 6.4 0.00 0.61 0.61 94 1020.6
20260507053024 -2 214 3.2 6.4 0.00 0.61 0.61 94 1020.6
20260507050014 -2 215 0.0 3.2 0.00 0.61 0.61 93 1020.4
20260507044516 -2 205 1.6 6.4 0.00 0.61 0.61 93 1020.4
20260507041521 -2 178 3.2 9.7 0.00 0.61 0.61 93 1020.3